LERSLEIB

Guest
Details From LERS - Reus
To LEIB - Ibiza
Flight Number -
Tags Generated
Created
Modified
Stats Distance 137 nm / 254 km
Max Altitude 0 ft / 0 m
Waypoints 2
Social Downloads 0
Likes 0
Share VATSIM

Download

Looking for another format? Having issues loading an existing format? Contact us
Advertisement - Login to hide

Notes

Generated

Route

LERS LEIB

ID Type Via Altitude Latitude Longitude Leg Dist Tot Dist Heading (true) Name
O LERS APT - 0 ft / 0 m 41.14306˚ 1.15458˚ - 0 nm - -
O LEIB APT - 0 ft / 0 m 38.86694˚ 1.35887˚ 137 nm 137 nm 176° / 176° -

Altitude Profile

Advertisement - Login to hide

LERS

Details ICAO LERS (REU)
Name Reus
Region Spain
Timezone Europe/Madrid (UTC+2.0)
Stats Elevation 0 ft / 0 m (AMSL)
Location 41.144615° 1.165505°
Runways 2
Magnetic Variation 0.640° E

METAR

LERS 211100Z 15007KT 090V220 9999 FEW025 23/14 Q1012

Decode

TAF

TAF TAF LERS 210800Z 2109/2209 VRB03KT 9999 FEW040 TX23/2113Z TN14/2206Z BECMG 2110/2112 14010KT BECMG 2118/2120 VRB03KT

Decode

Departure Runways

ID Width Length Bearing (true) Bearing (mag) Surface Threshold Offset Overrun Length
12 115 ft / 35 m 3,120 ft / 951 m 290.95° 290.31° Grass 0 ft / 0 m 0 ft / 0 m
25 148 ft / 45 m 8,062 ft / 2,457 m 248.91° 248.27° Asphalt 0 ft / 0 m 0 ft / 0 m
30 115 ft / 35 m 3,120 ft / 951 m 110.95° 110.31° Grass 0 ft / 0 m 0 ft / 0 m
7 148 ft / 45 m 8,062 ft / 2,457 m 68.89° 68.25° Asphalt 883 ft / 269 m 0 ft / 0 m

LEIB

Details ICAO LEIB (IBZ)
Name Ibiza
Region Spain
Timezone Europe/Madrid (UTC+2.0)
Stats Elevation 20 ft / 6 m (AMSL)
Location 38.872871° 1.373045°
Runways 1
Magnetic Variation 0.709° E

METAR

LEIB 211100Z 22013KT 180V260 9999 SCT024 21/15 Q1012 NOSIG

Decode

TAF

TAF LEIB 210800Z 2109/2209 20005KT 9999 FEW020 SCT040 TX21/2112Z TN14/2206Z BECMG 2110/2112 23010KT BECMG 2118/2120 VRB03KT

Decode

Destination Runways

ID Width Length Bearing (true) Bearing (mag) Surface Threshold Offset Overrun Length
06 148 ft / 45 m 9,153 ft / 2,790 m 61.85° 61.14° Asphalt 0 ft / 0 m 213 ft / 65 m
24 148 ft / 45 m 9,153 ft / 2,790 m 241.86° 241.15° Asphalt 0 ft / 0 m 197 ft / 60 m

Approach Navaids

Runway Type Ident Frequency Range Bearing (true) Bearing (mag) Slope Elevation
06 Localiser IBI 111.10 MHz 18 nm / 33 km 62.00° 61.29° - 20 ft / 6 m (AMSL)
06 Glidescope IBI 111.10 MHz 10 nm / 19 km 62.00° 61.29° 3.00° 20 ft / 6 m (AMSL)
06 DME IBI 111.10 MHz 18 nm / 33 km - - - 20 ft / 6 m (AMSL)
24 Localiser IBZ 109.50 MHz 18 nm / 33 km 241.81° 241.10° - 15 ft / 5 m (AMSL)
24 Glidescope IBZ 109.50 MHz 10 nm / 19 km 241.86° 241.15° 3.00° 69 ft / 21 m (AMSL)
24 DME IBZ 109.50 MHz 18 nm / 33 km - - - 69 ft / 21 m (AMSL)

Popular Alternatives